mysexgames.com alexa rank chart, mysexgames.com alexa rank daily changes

mysexgames.com alexa rank chart, mysexgames.com alexa rank daily changes

mysexgames.com
Actual rank:
30 861

RANK HISTORY

Date Rank Diff
2017/11/22 30 861 +22
2017/11/21 30 839 -810
2017/11/20 31 649 -405
2017/11/19 32 054 -125
2017/11/18 32 179 -429
2017/11/17 32 608 +366
2017/11/16 32 242 +149
2017/11/15 32 093 -318
2017/11/14 32 411 -221
2017/11/13 32 632 -325
2017/11/12 32 957 -19
2017/11/11 32 976 +375
2017/11/10 32 601 +706
2017/11/09 31 895 +226
2017/11/08 31 669 +540
2017/11/07 31 129 -427
2017/11/06 31 556 -199
2017/11/05 31 755 +289
2017/11/04 31 466 +92
2017/11/03 31 374 +230
2017/11/02 31 144 +314
2017/11/01 30 830 +247
2017/10/31 30 583 +54
2017/10/30 30 529 -752
2017/10/29 31 281 -258
2017/10/28 31 539 -20
2017/10/27 31 559 +152
2017/10/26 31 407 +322
2017/10/25 31 085 +303
2017/10/24 30 782 +37
2017/10/23 30 745 -1 053
2017/10/22 31 798 +18
2017/10/21 31 780 +129
2017/10/20 31 651 -46
2017/10/19 31 697 -27
2017/10/18 31 724 +589
2017/10/17 31 135 -629
2017/10/16 31 764 +97
2017/10/14 31 667 -257
2017/10/13 31 924 -506
2017/10/12 32 430 +200
2017/10/11 32 230 +49
2017/10/10 32 181 -380
2017/10/09 32 561 -277
2017/10/08 32 838 -315
2017/10/07 33 153 +152
2017/10/06 33 001 -225
2017/10/05 33 226 -470
2017/10/04 33 696 +47
2017/10/03 33 649 +901
2017/10/02 32 748 -443
2017/10/01 33 191 -554
2017/09/30 33 745 +91
2017/09/29 33 654 +553
2017/09/28 33 101 +210
2017/09/27 32 891 -454
2017/09/26 33 345 -516
2017/09/25 33 861 -506
2017/09/24 34 367 -56
2017/09/23 34 423

WIDGET FOR YOUR SITE

DOMAINS WITH THE NEAREST RANK

Domain Rank
jokes4us.com 30 856
rsna.org 30 857
humankinetics.com 30 858
format.com 30 859
fanlink.to 30 860
mysexgames.com 30 861
myherocn.com 30 862
farming2015mods.com 30 863
setmore.com 30 864
ankieta-online.pl 30 865
win7zhijia.cn 30 866

DOMAINS WITH THE NEAREST RANK BY TLD .com

Domain Rank
uniontestprep.com 30 852
5chajian.com 30 855
jokes4us.com 30 856
humankinetics.com 30 858
format.com 30 859
mysexgames.com 30 861
myherocn.com 30 862
farming2015mods.com 30 863
setmore.com 30 864
toucharger.com 30 869
easyeda.com 30 870